Time,TemperatureF,DewpointF,PressureIn,WindDirection,WindDirectionDegrees,WindSpeedMPH,WindSpeedGustMPH,Humidity,HourlyPrecipIn,Conditions,Clouds,dailyrainin,SoftwareType,DateUTC
2013-11-26 00:00:00,24.0,15.0,30.35,SSW,198,0.0,2.0,72,0.00,,,-99.99,,2013-11-26 05:00:00,
2013-11-26 00:43:00,24.0,15.0,30.35,SSW,198,0.0,2.0,72,0.00,,,-99.99,,2013-11-26 05:43:00,
2013-11-26 00:53:00,24.0,15.0,30.35,SSW,198,0.0,2.0,72,0.00,,,-99.99,,2013-11-26 05:53:00,
2013-11-26 01:00:00,26.0,17.0,30.34,SSW,211,0.0,5.0,71,0.00,,,-99.99,,2013-11-26 06:00:00,
2013-11-26 01:42:00,26.0,17.0,30.34,SSW,211,0.0,5.0,71,0.00,,,-99.99,,2013-11-26 06:42:00,
2013-11-26 01:52:00,26.0,17.0,30.34,SSW,211,0.0,5.0,71,0.00,,,-99.99,,2013-11-26 06:52:00,
2013-11-26 02:00:00,27.0,18.0,30.33,South,186,0.0,5.0,69,0.00,,,-99.99,,2013-11-26 07:00:00,
2013-11-26 02:42:00,27.0,18.0,30.33,South,186,0.0,5.0,69,0.00,,,-99.99,,2013-11-26 07:42:00,
2013-11-26 02:52:00,27.0,18.0,30.33,South,186,0.0,5.0,69,0.00,,,-99.99,,2013-11-26 07:52:00,
2013-11-26 03:00:00,28.0,19.0,30.30,South,169,0.0,0.0,71,0.00,,,-99.99,,2013-11-26 08:00:00,
2013-11-26 03:42:00,28.0,19.0,30.30,South,169,0.0,0.0,71,0.00,,,-99.99,,2013-11-26 08:42:00,
2013-11-26 03:52:00,28.0,19.0,30.30,South,169,0.0,0.0,71,0.00,,,-99.99,,2013-11-26 08:52:00,
2013-11-26 04:00:00,30.0,21.0,30.30,South,184,0.0,6.0,70,0.00,,,-99.99,,2013-11-26 09:00:00,
2013-11-26 04:44:00,30.0,21.0,30.30,South,184,0.0,6.0,70,0.00,,,-99.99,,2013-11-26 09:44:00,
2013-11-26 04:54:00,30.0,21.0,30.30,South,184,0.0,6.0,70,0.00,,,-99.99,,2013-11-26 09:54:00,
2013-11-26 05:00:00,31.0,23.0,30.29,South,182,1.0,4.0,71,0.00,,,-99.99,,2013-11-26 10:00:00,
2013-11-26 05:43:00,31.0,23.0,30.29,South,182,1.0,4.0,71,0.00,,,-99.99,,2013-11-26 10:43:00,
2013-11-26 05:53:00,31.0,23.0,30.29,South,182,1.0,4.0,71,0.00,,,-99.99,,2013-11-26 10:53:00,
2013-11-26 06:00:00,29.0,23.0,30.29,NW,325,0.0,2.0,79,0.00,,,-99.99,,2013-11-26 11:00:00,
2013-11-26 06:42:00,29.0,23.0,30.29,NW,325,0.0,2.0,79,0.00,,,-99.99,,2013-11-26 11:42:00,
2013-11-26 06:53:00,29.0,23.0,30.29,NW,325,0.0,2.0,79,0.00,,,-99.99,,2013-11-26 11:53:00,
2013-11-26 07:00:00,31.0,24.0,30.30,NNW,348,0.0,4.0,75,0.00,,,-99.99,,2013-11-26 12:00:00,
2013-11-26 07:42:00,31.0,24.0,30.30,NNW,348,0.0,4.0,75,0.00,,,-99.99,,2013-11-26 12:42:00,
2013-11-26 07:52:00,31.0,24.0,30.30,NNW,348,0.0,4.0,75,0.00,,,-99.99,,2013-11-26 12:52:00,
2013-11-26 08:00:00,34.0,24.0,30.31,WNW,283,0.0,6.0,65,0.00,,,-99.99,,2013-11-26 13:00:00,
2013-11-26 08:42:00,34.0,24.0,30.31,WNW,283,0.0,6.0,65,0.00,,,-99.99,,2013-11-26 13:42:00,
2013-11-26 08:52:00,34.0,24.0,30.31,WNW,283,0.0,6.0,65,0.00,,,-99.99,,2013-11-26 13:52:00,
2013-11-26 09:00:00,38.0,22.0,30.31,SW,236,5.0,9.0,53,0.00,,,-99.99,,2013-11-26 14:00:00,
2013-11-26 09:42:00,38.0,22.0,30.31,SW,236,5.0,9.0,53,0.00,,,-99.99,,2013-11-26 14:42:00,
2013-11-26 09:52:00,38.0,22.0,30.31,SW,236,5.0,9.0,53,0.00,,,-99.99,,2013-11-26 14:52:00,
2013-11-26 10:00:00,40.0,21.0,30.30,WSW,241,0.0,10.0,47,0.00,,,-99.99,,2013-11-26 15:00:00,
2013-11-26 10:44:00,40.0,21.0,30.30,WSW,241,0.0,10.0,47,0.00,,,-99.99,,2013-11-26 15:44:00,
2013-11-26 10:55:00,40.0,21.0,30.30,WSW,241,0.0,10.0,47,0.00,,,-99.99,,2013-11-26 15:55:00,
2013-11-26 11:00:00,40.0,19.0,30.27,SW,229,0.0,7.0,41,0.00,,,-99.99,,2013-11-26 16:00:00,
2013-11-26 11:43:00,40.0,19.0,30.27,SW,229,0.0,7.0,41,0.00,,,-99.99,,2013-11-26 16:43:00,
2013-11-26 11:54:00,40.0,19.0,30.27,SW,229,0.0,7.0,41,0.00,,,-99.99,,2013-11-26 16:54:00,
2013-11-26 12:00:00,40.0,23.0,30.23,NE,46,1.0,3.0,50,0.00,,,-99.99,,2013-11-26 17:00:00,
2013-11-26 12:43:00,40.0,23.0,30.23,NE,46,1.0,3.0,50,0.00,,,-99.99,,2013-11-26 17:43:00,
2013-11-26 12:53:00,40.0,23.0,30.23,NE,46,1.0,3.0,50,0.00,,,-99.99,,2013-11-26 17:53:00,
2013-11-26 13:00:00,38.0,29.0,30.21,ENE,74,0.0,6.0,69,0.00,,,-99.99,,2013-11-26 18:00:00,
2013-11-26 13:42:00,38.0,29.0,30.21,ENE,74,0.0,6.0,69,0.00,,,-99.99,,2013-11-26 18:42:00,
2013-11-26 13:53:00,38.0,29.0,30.21,ENE,74,0.0,6.0,69,0.00,,,-99.99,,2013-11-26 18:53:00,
2013-11-26 14:00:00,37.0,33.0,30.19,ENE,76,0.0,4.0,85,0.00,,,-99.99,,2013-11-26 19:00:00,
2013-11-26 14:42:00,37.0,33.0,30.19,ENE,76,0.0,4.0,85,0.00,,,-99.99,,2013-11-26 19:42:00,
2013-11-26 14:52:00,37.0,33.0,30.19,ENE,76,0.0,4.0,85,0.00,,,-99.99,,2013-11-26 19:52:00,
2013-11-26 15:00:00,36.0,33.0,30.16,East,83,0.0,4.0,87,0.02,,,-99.99,,2013-11-26 20:00:00,
2013-11-26 15:42:00,36.0,33.0,30.16,East,83,0.0,4.0,87,0.02,,,-99.99,,2013-11-26 20:42:00,
2013-11-26 15:53:00,36.0,33.0,30.16,East,83,0.0,4.0,87,0.02,,,-99.99,,2013-11-26 20:53:00,
2013-11-26 16:00:00,35.0,33.0,30.15,East,91,2.0,5.0,90,0.02,,,-99.99,,2013-11-26 21:00:00,
2013-11-26 16:44:00,35.0,33.0,30.15,East,91,2.0,5.0,90,0.02,,,-99.99,,2013-11-26 21:44:00,
2013-11-26 16:53:00,35.0,33.0,30.15,East,91,2.0,5.0,90,0.02,,,-99.99,,2013-11-26 21:53:00,
2013-11-26 17:00:00,36.0,34.0,30.11,ESE,114,3.0,7.0,92,0.03,,,-99.99,,2013-11-26 22:00:00,
2013-11-26 17:43:00,36.0,34.0,30.11,ESE,114,3.0,7.0,92,0.03,,,-99.99,,2013-11-26 22:43:00,
2013-11-26 17:53:00,36.0,34.0,30.11,ESE,114,3.0,7.0,92,0.03,,,-99.99,,2013-11-26 22:53:00,
2013-11-26 18:00:00,39.0,37.0,30.06,ENE,60,2.0,7.0,93,0.01,,,-99.99,,2013-11-26 23:00:00,
2013-11-26 18:43:00,39.0,37.0,30.06,ENE,60,2.0,7.0,93,0.01,,,-99.99,,2013-11-26 23:43:00,
2013-11-26 18:53:00,39.0,37.0,30.06,ENE,60,2.0,7.0,93,0.01,,,-99.99,,2013-11-26 23:53:00,
2013-11-26 19:00:00,42.0,40.0,30.03,ENE,58,2.0,6.0,94,0.02,,,-99.99,,2013-11-27 00:00:00,
2013-11-26 19:42:00,42.0,40.0,30.03,ENE,58,2.0,6.0,94,0.02,,,-99.99,,2013-11-27 00:42:00,
2013-11-26 19:52:00,42.0,40.0,30.03,ENE,58,2.0,6.0,94,0.02,,,-99.99,,2013-11-27 00:52:00,
2013-11-26 20:00:00,45.0,43.0,29.97,NE,54,4.0,13.0,94,0.05,,,-99.99,,2013-11-27 01:00:00,
2013-11-26 20:42:00,45.0,43.0,29.97,NE,54,4.0,13.0,94,0.05,,,-99.99,,2013-11-27 01:42:00,
2013-11-26 20:52:00,45.0,43.0,29.97,NE,54,4.0,13.0,94,0.05,,,-99.99,,2013-11-27 01:52:00,
2013-11-26 21:00:00,48.0,47.0,29.89,ESE,116,3.0,12.0,94,0.05,,,-99.99,,2013-11-27 02:00:00,
2013-11-26 21:42:00,48.0,47.0,29.89,ESE,116,3.0,12.0,94,0.05,,,-99.99,,2013-11-27 02:42:00,
2013-11-26 21:52:00,48.0,47.0,29.89,ESE,116,3.0,12.0,94,0.05,,,-99.99,,2013-11-27 02:52:00,
2013-11-26 22:00:00,52.0,50.0,29.83,North,0,0.0,15.0,93,0.08,,,-99.99,,2013-11-27 03:00:00,
2013-11-26 22:44:00,52.0,50.0,29.83,North,0,0.0,15.0,93,0.08,,,-99.99,,2013-11-27 03:44:00,
2013-11-26 22:54:00,52.0,50.0,29.83,North,0,0.0,15.0,93,0.08,,,-99.99,,2013-11-27 03:54:00,
2013-11-26 23:00:00,53.0,51.0,29.75,ESE,118,6.0,21.0,94,0.15,,,-99.99,,2013-11-27 04:00:00,
2013-11-26 23:43:00,53.0,51.0,29.75,ESE,118,6.0,21.0,94,0.15,,,-99.99,,2013-11-27 04:43:00,
2013-11-26 23:53:00,53.0,51.0,29.75,ESE,118,6.0,21.0,94,0.15,,,-99.99,,2013-11-27 04:53:00,